Location: Roc des P�zouls
(43.9667°N, 3.5500°E)
Time: 02:33:51
(UTC+00:00)

SL-4 R/B - Pass Details

Date: 14 November 2019
Orbit: 428 x 667 km, 51.6° (Epoch: 14 December)

Event Time Altitude Azimuth Distance (km) Brightness Sun altitude
Exits shadow 05:52:59 - 305° (NW) 2,136 4.4 -8.5°
Reaches altitude 10° 05:53:06 10° 305° (NW) 2,093 4.4 -8.5°
Maximum altitude 05:57:49 49° 20° (NNE) 863 3.0 -7.7°
Drops below altitude 10° 06:02:27 10° 96° (E) 2,057 6.5 -6.9°
Sets 06:04:49 0° 102° (ESE) 2,943 8.2 -6.5°
